Location: Harbor View
(36.2448°N, 86.5797°W)
Time: 08:40:05
(UTC+00:00)

OAO 1 Rocket - Pass Details

Date: 29 October 2020
Orbit: 743 x 755 km, 35.0° (Epoch: 04 December)

Event Time Altitude Azimuth Distance (km) Brightness Sun altitude
Rises 23:42:08 0° 264° (W) 3,193 10.0 -10.5°
Reaches altitude 10° 23:44:35 10° 263° (W) 2,268 8.5 -11.0°
Maximum altitude 23:49:56 79° 177° (S) 765 4.5 -12.1°
Enters shadow 23:53:58 18° 92° (E) 1,784 5.8 -12.9°
